Theta_e
334 336 331 330 338 340 343 341 335 325 329 337 335 327 326 325 327 321 317 317 314 311 311 311 311 310 310 311 313 312 309 307 307 307 308 309 310 310
327 333 335 338 339 340 338 336 337 331 322 319 313 314 314 313 314 311 313 312 310 309 308 308 308 309 310 312 309 308 306 305 305 305 306 306 308 309
330 328 328 330 328 330 328 327 326 324 324 307 306 305 305 305 305 306 307 306 308 309 308 307 306 306 306 308 306 305 304 303 304 304 304 305 306 307
324 322 322 322 324 325 324 322 317 315 315 305 301 301 303 306 307 304 305 306 306 307 307 306 306 307 306 305 303 303 302 301 301 302 303 303 305 306
317 315 316 319 319 318 316 315 313 311 311 306 298 301 301 303 301 302 302 303 305 305 304 303 305 305 304 303 302 301 301 301 301 301 301 302 302 304
313 313 312 314 313 313 312 311 308 305 303 299 297 298 298 301 299 298 297 299 298 301 301 302 305 304 303 301 302 302 301 300 300 300 300 300 300 301
310 310 309 308 306 307 311 308 306 302 299 297 296 296 297 297 296 297 295 297 298 300 300 302 304 304 302 301 302 302 301 300 300 300 300 299 299 300
309 309 309 308 305 303 303 302 304 300 298 296 296 294 295 296 297 297 296 297 297 304 302 301 303 303 302 303 301 300 300 299 299 299 299 299 299 299
309 309 308 307 307 305 303 303 302 301 300 298 296 296 295 297 298 299 301 300 298 301 302 298 301 299 301 302 300 300 299 299 299 298 299 299 298 298
309 309 308 307 306 306 305 304 304 303 303 301 300 301 302 304 305 304 303 301 301 301 302 296 300 299 303 302 299 299 298 298 298 298 298 298 298 298
307 308 307 306 298 299 305 303 302 301 300 299 298 297 297 297 300 302 300 298 297 297 301 298 298 297 300 301 300 299 299 298 298 298 298 298 298 299
303 304 297 301 295 297 306 304 301 300 301 302 302 300 303 302 302 305 302 298 297 296 299 296 297 297 295 300 299 301 301 299 299 298 298 297 297 305
298 300 299 294 294 295 299 304 301 303 301 303 302 302 302 303 303 305 304 301 298 296 300 299 296 297 296 295 298 300 299 298 300 302 299 297 297 298
295 296 297 292 293 294 299 295 295 299 301 301 301 300 300 301 303 304 304 305 301 300 302 300 296 296 296 294 294 297 299 298 300 298 300 299 299 299
297 295 294 293 293 296 294 294 296 302 302 301 301 300 300 303 304 304 304 304 303 304 302 301 299 298 297 294 294 295 294 298 298 298 299 297 299 304
299 300 298 298 297 300 301 300 300 300 301 301 302 303 304 302 300 302 303 303 300 300 302 305 300 297 295 296 296 294 296 295 297 297 298 297 298 302
302 302 300 300 299 299 300 301 301 300 300 300 301 301 302 302 301 303 301 301 300 299 298 301 300 298 296 295 294 295 295 295 297 297 298 296 295 298
298 296 296 296 296 297 297 297 299 300 300 300 301 301 301 301 299 300 299 298 297 298 298 299 299 297 296 295 296 294 296 295 297 299 298 293 292 295
297 297 297 297 297 297 298 298 297 298 300 299 299 300 300 301 298 297 297 297 297 298 298 298 297 294 290 288 293 296 295 296 298 296 294 292 291 292
298 297 296 296 297 297 297 297 297 298 298 298 299 300 300 300 298 297 297 296 296 297 296 296 296 294 289 287 287 292 293 297 297 294 294 295 294 295
295 295 296 296 296 296 296 297 297 296 297 298 298 298 299 299 299 297 298 293 293 295 294 294 296 289 296 294 291 290 293 295 297 297 297 295 294 293
295 295 295 296 296 296 296 297 297 297 297 297 297 298 298 299 297 297 298 295 295 295 294 296 298 297 293 290 288 290 291 293 294 295 295 295 298 292
295 295 295 296 296 296 296 296 296 296 296 296 296 297 298 298 297 298 297 295 293 294 294 294 296 296 292 291 290 290 291 291 291 289 290 293 294 293
Wind_Speed
14 14 14 13 12 12 10 9 11 12 12 9 5 5 4 4 4 6 8 18 17 13 12 11 9 3 6 15 13 11 6 3 2 7 11 13 16 17
12 14 14 11 11 9 8 7 9 11 9 3 5 4 7 7 11 11 11 14 12 11 10 8 7 9 10 7 5 6 3 0 4 8 11 14 15 15
14 14 11 8 7 7 6 5 6 5 8 3 4 6 6 9 10 10 10 9 7 13 11 10 7 5 3 8 8 5 1 2 6 9 11 12 14 15
13 10 8 5 7 5 5 5 4 4 3 3 3 2 6 9 11 11 9 9 7 13 10 4 3 4 7 7 5 4 2 4 7 9 11 12 14 15
6 6 6 7 6 6 6 5 5 4 4 3 4 2 4 8 10 10 8 9 7 12 9 3 7 7 6 5 3 3 3 6 7 9 10 12 13 15
4 7 8 8 6 5 5 5 5 6 8 8 7 6 5 6 6 7 7 3 6 4 4 5 7 8 7 4 1 4 7 7 8 9 10 11 12 12
7 9 12 14 19 17 6 7 7 7 8 8 7 7 5 4 4 3 4 4 4 3 3 6 7 8 5 4 3 10 9 8 8 9 11 11 10 8
7 9 12 17 20 24 24 26 15 11 11 8 7 8 8 5 4 3 1 3 3 3 2 2 3 1 2 5 7 7 7 8 9 11 10 10 8 6
6 8 9 9 13 15 21 24 25 25 21 11 10 7 7 3 2 3 2 5 3 2 4 4 1 3 2 4 6 7 8 10 10 10 10 9 6 5
8 9 11 12 12 14 16 19 18 16 12 10 9 6 5 2 4 5 5 4 4 3 3 2 4 1 1 3 5 7 9 9 8 8 9 9 6 5
11 12 12 13 7 7 15 17 17 15 14 15 12 11 9 8 6 1 1 4 3 5 7 4 4 3 1 1 4 3 2 7 8 9 10 10 8 4
13 13 18 11 11 8 14 14 13 10 9 9 8 8 10 8 3 7 6 6 5 4 8 5 4 3 1 3 3 3 5 8 6 7 8 10 12 3
8 10 9 12 13 15 13 12 10 8 6 8 7 7 7 8 8 9 10 8 6 6 8 5 4 4 3 3 2 4 4 7 5 5 4 9 9 9
9 7 9 12 10 9 10 6 2 6 6 7 8 8 7 7 8 8 8 7 6 5 4 7 3 4 3 2 2 5 4 5 5 5 6 7 4 3
8 8 10 11 11 8 3 5 3 6 6 7 7 7 6 4 2 2 3 2 4 7 6 8 9 6 5 4 3 4 3 4 5 5 4 5 5 5
10 9 12 9 7 6 7 9 8 8 7 7 6 5 6 7 3 3 3 2 5 5 6 6 7 9 6 4 4 3 5 3 5 4 4 4 6 6
8 8 9 9 9 9 7 8 7 7 7 7 6 6 6 8 7 7 6 5 6 6 7 8 7 8 8 9 3 4 4 3 4 4 4 6 8 8
10 10 9 8 8 8 8 7 8 8 9 8 8 7 7 9 9 7 7 6 6 7 7 7 7 4 3 4 15 5 4 4 4 5 4 7 8 8
9 9 8 9 9 8 8 8 8 9 9 8 8 8 7 8 7 8 6 6 5 6 6 6 6 6 4 3 4 17 4 4 4 8 7 8 8 9
10 10 10 9 9 10 9 9 9 9 8 8 8 8 8 8 9 6 7 7 6 7 7 6 5 5 3 3 2 6 15 5 5 7 8 7 6 11
10 10 10 9 9 9 8 8 9 8 8 8 8 8 8 7 10 6 7 7 7 5 6 6 6 5 5 2 3 6 8 21 15 5 4 5 5 4
10 10 10 9 9 10 9 8 8 9 9 8 8 7 8 7 9 8 9 7 7 7 5 3 5 6 5 4 6 6 6 7 17 25 23 14 2 4
10 10 10 9 9 9 9 9 9 9 9 9 9 8 8 8 8 7 8 8 7 7 6 4 4 5 6 6 6 7 9 9 8 11 13 21 22 22
Wind_Direction
276 278 273 281 269 270 275 266 266 278 276 282 284 38 15 0 7 82 106 136 134 137 148 180 148 161 145 233 237 231 227 241 263 287 299 307 305 301
281 290 302 293 286 283 289 297 286 276 279 37 49 42 58 60 66 79 88 94 91 97 113 148 178 215 235 242 117 124 132 242 290 304 310 306 302 303
300 302 295 297 296 292 293 294 291 318 264 99 62 24 55 81 81 65 68 68 79 77 67 59 45 40 66 117 114 110 160 320 323 314 311 305 306 302
304 305 293 299 288 303 302 314 333 340 306 113 78 62 90 99 97 93 91 79 69 73 66 88 165 146 107 112 137 122 53 2 335 322 312 309 304 312
330 328 321 329 351 346 344 340 360 14 9 115 107 96 76 100 94 83 81 92 82 76 68 329 140 142 144 164 137 113 49 11 340 318 315 308 317 318
28 31 22 13 4 5 20 26 43 66 75 90 95 93 84 82 83 101 89 63 83 69 71 314 160 174 171 168 102 46 21 359 341 319 320 324 323 317
68 68 60 61 55 39 35 52 65 79 88 94 92 90 91 82 67 76 102 108 95 196 197 214 197 198 175 186 74 35 12 349 332 336 336 327 311 311
105 95 89 83 71 67 67 57 58 83 78 77 75 73 65 63 55 66 107 177 141 223 278 114 274 145 134 95 39 21 359 348 351 347 331 322 315 330
116 104 99 101 92 90 83 77 68 68 66 66 67 55 65 52 158 166 55 55 62 33 312 63 131 130 135 111 39 12 15 2 353 338 340 341 353 354
89 102 93 89 92 95 90 82 69 63 66 75 74 74 74 101 83 75 93 123 140 103 357 33 11 339 84 56 63 23 17 359 351 342 358 360 360 17
99 89 96 94 38 64 89 89 86 81 81 87 93 94 80 57 9 16 69 322 76 49 30 354 15 321 193 129 43 346 6 4 358 1 7 7 354 290
97 81 45 59 31 30 97 92 88 91 110 107 116 133 107 106 62 32 25 42 22 31 29 338 353 343 226 93 39 339 3 12 353 356 15 17 2 303
70 82 76 48 39 40 57 82 79 96 88 82 73 80 84 78 63 48 37 37 37 43 15 335 9 351 359 332 354 358 20 7 349 9 32 26 8 13
91 81 79 61 51 62 91 99 108 81 91 79 64 61 59 46 51 49 46 49 64 64 30 34 359 355 343 357 2 352 32 7 5 9 9 5 348 66
98 109 112 106 112 101 112 242 246 60 67 65 73 83 72 79 104 125 126 74 68 62 31 38 31 8 37 24 7 7 349 8 18 7 16 18 10 2
112 88 90 89 86 122 85 66 63 46 34 43 50 54 107 106 39 3 110 56 44 39 22 40 66 43 18 22 11 26 17 19 359 357 33 29 20 25
100 92 75 66 65 58 55 56 42 42 46 35 31 28 36 68 46 33 59 7 41 7 36 17 107 83 53 26 14 15 25 35 18 358 48 53 33 26
86 85 79 68 62 57 56 55 43 36 28 29 28 21 30 47 29 25 32 21 21 18 21 16 15 25 49 41 35 357 26 36 16 34 58 68 54 38
77 81 76 66 59 55 52 46 45 33 20 26 24 19 12 74 36 49 22 17 11 24 31 12 20 27 30 32 343 22 19 27 60 66 62 72 78 49
64 63 62 56 50 45 40 36 31 23 26 22 25 18 9 11 80 25 47 27 12 13 25 18 18 9 45 360 358 28 27 28 60 86 85 83 84 82
66 62 55 51 47 44 38 44 39 34 16 21 25 23 3 6 54 20 62 48 24 13 16 15 15 38 70 348 51 46 44 47 52 52 65 82 83 70
64 60 55 49 43 38 38 39 36 27 24 25 31 23 6 8 51 22 38 24 10 29 6 16 25 64 55 40 54 53 56 52 56 58 53 51 323 95
60 56 50 46 46 42 41 34 31 30 25 25 31 23 15 16 41 33 42 25 19 14 16 21 29 71 72 69 62 60 57 57 59 64 56 57 72 85